Flag for Netherlands Weather past 2 weeks in Wageningen, Netherlands

Now
45 °F

Overcast.


Feels Like: 39 °F
Forecast: 38 / 45 °F
Wind: 10 mph from Southwest

Location: Deelen

Current Time: Mar 1, 2015 at 10:28:18 PM

Latest Report: Mar 1, 2015 at 9:55 PM


Visibility: N/A

Pressure: 29.47 "Hg

Humidity: 71%

Dew point: 36 °F

Location of WageningenLocation

Historic Weather in Wageningen — Graph

°F

Wageningen temperature yesterday

Maximum temperature yesterday: 48 °F (at 2:25 PM)
Minimum temperature yesterday: 28 °F (at 12:25 AM)
Average temperature yesterday: 39 °F

Past Weeks' High & Low Weather Summary

 TemperatureHumidityPressure
High52 °F (Mar 1, 1:25 PM)100% (Feb 16, 2:25 AM)30.72 "Hg (Feb 16, 2:25 AM)
Low25 °F (Feb 16, 4:25 AM)53% (Feb 27, 4:25 PM)29.30 "Hg (Feb 23, 4:25 AM)
Average39 °F87%29.91 "Hg
* Reported Feb 14 8:25 PM — Mar 1 8:55 PM, Wageningen, Weather by CustomWeather, © 2015

Note: Actual official high and low records may vary slightly from our data, if they occured in-between our weather recording intervals... More about our weather records

Advertising

Wageningen weather history for previous 24 hours

 ConditionsComfort  
Time TempWeatherWind HumidityBarometerVisibility
8:55 PM
Sun, Mar 1
45 °FPassing clouds.12 mph71%29.50 "HgN/A
8:25 PM45 °FOvercast.9 mph76%29.53 "HgN/A
7:55 PM43 °FMostly cloudy.8 mph81%29.53 "HgN/A
7:25 PM45 °FPassing clouds.9 mph76%29.53 "HgN/A
6:55 PM45 °FPassing clouds.12 mph71%29.56 "HgN/A
6:25 PM45 °FPassing clouds.12 mph71%29.56 "HgN/A
5:55 PM46 °FPassing clouds.14 mph66%29.56 "HgN/A
5:25 PM48 °FPassing clouds.17 mph62%29.56 "HgN/A
4:55 PM50 °FOvercast.18 mph54%29.56 "HgN/A
4:25 PM50 °FMostly cloudy.15 mph58%29.56 "HgN/A
3:55 PM50 °FScattered clouds.20 mph58%29.56 "HgN/A
3:25 PM50 °FPassing clouds.20 mph58%29.56 "HgN/A
2:55 PM50 °FPassing clouds.23 mph58%29.56 "HgN/A
2:25 PM52 °FPassing clouds.21 mph54%29.53 "HgN/A
1:55 PM52 °FPassing clouds.22 mph58%29.53 "HgN/A
1:25 PM52 °FBroken clouds.22 mph54%29.53 "HgN/A
12:55 PM48 °FBroken clouds.20 mph62%29.56 "HgN/A
12:25 PM50 °FBroken clouds.23 mph62%29.53 "HgN/A
11:55 AM50 °FBroken clouds.22 mph67%29.53 "HgN/A
11:25 AM50 °FBroken clouds.22 mph71%29.53 "HgN/A
10:55 AM48 °FCloudy.21 mph76%29.53 "HgN/A
10:25 AM48 °FScattered clouds.17 mph76%29.53 "HgN/A
9:55 AM48 °FPartly sunny.20 mph76%29.53 "HgN/A
9:25 AM46 °FBroken clouds.17 mph87%29.50 "HgN/A
8:55 AM46 °FBroken clouds.17 mph87%29.50 "HgN/A
8:25 AM46 °FBroken clouds.14 mph93%29.47 "HgN/A
7:55 AM45 °FBroken clouds.13 mph100%29.47 "HgN/A
7:25 AM45 °FLight rain. Broken clouds.16 mph93%29.47 "HgN/A
6:55 AM43 °FMostly cloudy.16 mph100%29.47 "HgN/A
6:25 AM43 °FLight rain. Mostly cloudy.17 mph100%29.47 "HgN/A
5:55 AM43 °FDrizzle. Mostly cloudy.20 mph93%29.47 "Hg3 mi
5:25 AM41 °FDrizzle. Overcast.18 mph100%29.47 "Hg3 mi
4:55 AM41 °FPassing clouds.20 mph100%29.50 "Hg2 mi
4:25 AM41 °FLight rain. Mostly cloudy.18 mph93%29.47 "HgN/A
3:55 AM41 °FDrizzle. Mostly cloudy.17 mph87%29.50 "Hg4 mi
3:25 AM43 °FDrizzle. Overcast.20 mph81%29.50 "HgN/A
2:55 AM45 °FPartly cloudy.18 mph66%29.53 "HgN/A
2:25 AM45 °FOvercast.18 mph66%29.56 "HgN/A
1:55 AM45 °FOvercast.18 mph66%29.59 "HgN/A
1:25 AM45 °FMostly cloudy.17 mph66%29.62 "HgN/A
12:55 AM43 °FPassing clouds.17 mph71%29.62 "HgN/A
12:25 AM43 °FDrizzle. Overcast.18 mph66%29.65 "HgN/A
11:55 PM
Sat, Feb 28
43 °FDrizzle. Overcast.18 mph66%29.68 "HgN/A
11:25 PM45 °FOvercast.20 mph61%29.68 "HgN/A
10:55 PM45 °FOvercast.18 mph57%29.71 "HgN/A
10:25 PM45 °FOvercast.18 mph61%29.71 "HgN/A
Weather by CustomWeather, © 2015

See weather overviewHow to use our weather pages